Regional Weather Roundup
Issued by NWS

Home | Current Version | Previous Version | Graphics & Text | Print | Product List | Glossary On
Versions: 1 2 3 4 5 6 7 8 9 10 11 12 13 14 15 16 17 18 19 20 21 22 23 24 25 26 27 28 29 30 31 32 33 34 35 36 37 38 39 40 41 42 43 44 45 46 47 48 49 50
000
ASUS43 KOAX 201610
RWRNE

WEATHER ROUNDUP FOR NEBRASKA
NATIONAL WEATHER SERVICE OMAHA NE
1000 AM CST SAT DEC 20 2014

NOTES: SATELLITE DATA IS BEING USED TO AUGMENT CLOUD COVER ABOVE
       12000 FEET.
       "FAIR" INDICATES FEW OR NO CLOUDS BELOW 12,000 FEET WITH NO
       SIGNIFICANT WEATHER AND/OR OBSTRUCTIONS TO VISIBILITY.

  * THESE STATIONS DO NOT REPORT WEATHER SUCH AS RAIN...SNOW OR FOG.

NEZ001>004-019>022-054>056-201700-
NEBRASKA PANHANDLE

CITY           SKY/WX    TMP DP  RH WIND       PRES   REMARKS
SCOTTSBLUFF    CLOUDY    22  18  85 CALM      29.99R
ALLIANCE       CLOUDY    19  15  84 W7        29.96R WCI  10
CHADRON        CLOUDY    33  25  72 SW8       29.95R WCI  26
KIMBALL        CLOUDY    36  25  64 W9        29.98R WCI  29
SIDNEY         CLOUDY    33  22  63 W12       30.00R WCI  24
$$

NEZ057>060-069>072-079>082-201700-
SOUTHWEST NEBRASKA

CITY           SKY/WX    TMP DP  RH WIND       PRES   REMARKS
NORTH PLATTE   SUNNY     25  21  85 W8        30.02R FOG     WCI  16
IMPERIAL       MOSUNNY   27  19  72 W5        30.02R WCI  22
LEXINGTON      SUNNY     28  25  89 NW3       30.04R FOG
MCCOOK         SUNNY     28  24  85 SW5       30.04S WCI  23
OGALLALA       PTSUNNY   22  19  88 W8        30.01S WCI  13
$$

NEZ005>010-023>029-035>040-094-201700-
NORTH CENTRAL NEBRASKA

CITY           SKY/WX    TMP DP  RH WIND       PRES   REMARKS
VALENTINE      MOSUNNY   20  18  92 SW5       29.96R WCI  13
AINSWORTH      MOSUNNY   26  19  77 SW6       29.96S WCI  19
BROKEN BOW     SUNNY     28  23  81 CALM      30.01R
O`NEILL        SUNNY    N/A N/A N/A S3        30.02R
THEDFORD       SUNNY     32  26  78 SW6       29.98S WCI  26
$$

NEZ041-046>049-061>064-073>077-083>087-201700-
SOUTH CENTRAL NEBRASKA

CITY           SKY/WX    TMP DP  RH WIND       PRES   REMARKS
GRAND ISLAND   FOG       28  28 100 S5        30.08S VSB<1/4 WCI  23
AURORA         FOG       30  30 100 CALM      30.07F VSB<1/4
HASTINGS       HAZE      30  24  78 CALM      30.06S VSB 1/2
HEBRON         FOG       27  26  95 W3        30.11R VSB 1/4
HOLDREGE       SUNNY     29  25  84 CALM      30.04S
KEARNEY *      SUNNY     23  21  93 CALM      30.05S
YORK           FOG       30  30 100 CALM      30.09S VSB<1/4
$$

NEZ011>018-030>034-042>045-201700-
NORTHEAST NEBRASKA

CITY           SKY/WX    TMP DP  RH WIND       PRES   REMARKS
NORFOLK        CLOUDY    32  30  92 S7        30.07S FOG     WCI  26
ALBION         FOG       30  29  94 S7        30.07R VSB 1/4 WCI  24
BLAIR          CLOUDY    33  32  96 S8        30.11R FOG     WCI  25
COLUMBUS *     CLOUDY    32  27  80 S6        30.11R WCI  26
FREMONT        CLOUDY    33  32  96 S3        30.12R FOG
TEKAMAH        CLOUDY    33  31  92 SE7       30.13R FOG     WCI  27
WAYNE          CLOUDY    32  31  95 S8        30.10R FOG     WCI  25
$$

NEZ050>053-065>068-078-088>093-201700-
SOUTHEAST NEBRASKA

CITY           SKY/WX    TMP DP  RH WIND       PRES   REMARKS
LINCOLN        CLOUDY    32  31  96 SW3       30.13R FOG
OMAHA EPPLEY   CLOUDY    33  32  96 S7        30.14R FOG     WCI  27
BEATRICE       CLOUDY    32  32 100 SW6       30.11S FOG     WCI  26
FALLS CITY     CLOUDY    33  29  85 S7        30.14R WCI  27
NEBRASKA CITY  CLOUDY    33  33 100 S3        30.13R FOG
PLATTSMOUTH    CLOUDY    32  31  95 S5        30.12R FOG     WCI  27
$$

NEZ044-045-051>053-067-201700-
OMAHA AREA

CITY           SKY/WX    TMP DP  RH WIND       PRES   REMARKS
OMAHA EPPLEY   CLOUDY    33  32  96 S7        30.14R FOG     WCI  27
BLAIR          CLOUDY    33  32  96 S8        30.11R FOG     WCI  25
FREMONT        CLOUDY    33  32  96 S3        30.12R FOG
MILLARD        CLOUDY    33  31  93 S5        30.13R FOG     WCI  28
OFFUTT AFB     CLOUDY    33  32  96 SE5       30.12S FOG     WCI  28
PLATTSMOUTH    CLOUDY    32  31  95 S5        30.12R FOG     WCI  27
WAHOO          CLOUDY    32  31  94 S3        30.11S FOG
$$



USA.gov is the U.S. government's official web portal to all federal, state and local government web resources and services.